ANGOSAT 2

Last updated on Fri Oct 31 2025 00:02:50 GMT+0000 (Coordinated Universal Time)

1 54033U 22131A 25303.75999388 .00000145 00000+0 00000+0 0 9993 2 54033 0.0167 219.8516 0001272 64.3050 51.7859 1.00270419 11172
UTC large
Height (km)
Speed (km/s)
/
Latitude / Longitude
Inclination (degrees)
Orbital Period (minutes)
Azimuth
Elevation
Range (km)
Doppler Factor

Next 0 passes for location: London (51.5072 / 0.1276)

Sorry there are no passes over London.